星链-33961 (STARLINK-33961)

导读

STARLINK-33961是美国(US)于2025年5月16日发射的星链卫星,星链是SpaceX打造的低轨卫星互联网星座项目。这类卫星通过密集组网为全球提供高速互联网服务,尤其覆盖偏远与基础设施薄弱区域。该卫星入轨后,将和其他星链卫星协同,进一步扩展星座服务覆盖范围与网络容量。

Basic Information
目录编号:
64047
目录名称:
STARLINK-33961
国际标识:
2025-102AB
轨道中心:
EARTH
卫星名称:
星链-33961
卫星全名:
星链-33961 (STARLINK-33961)
卫星状态:
在轨 (已飞行394 天)
发射日期:
2025-05-16 UTC
国别 :
美国 (US)
星等 :
--
Orbit Information
数据来源 国际轨道数据 AOE轨道数据
星历时间 2026-06-13T21:42:01+0800
15小时前
查看轨道信息
2026-06-14T03:00:00+0800
10小时前
查看轨道信息
半长轴 6950.188km 6950.165km
偏心率 0.0003526 0.0003713
轨道倾角 70.001° 70.000°
近地点辐角 270.009° 274.290°
升交点赤经 232.724° 232.167°
平近点角 90.066° 196.574°
近地点 569.6km 569.447km
远地点 574.502km 574.609km
周期 96.107分钟 96.106分钟
每日圈数 14.983318 14.983391
Detailed Information
固有亮度:
5
最大亮度:
2.5
卫星平台:
Starlink V1.0
覆盖范围:
全球
运营商:
太空探索技术公司
运营商所在国:
美国
制造商(研发单位):
太空探索技术公司
制造商所在国:
美国
使用方式:
暂无
Satellite Introduction
Starlink 计划是 SpaceX 推出的全球卫星互联网项目,通过发射低轨道卫星,为全球尤其是偏远地区提供高速、低延迟的互联网服务。自 2019 年起,Starlink 已部署数千颗卫星,旨在缩小全球数字鸿沟,推动互联网普及。该项目还为军事、航空等行业提供通信支持,带来广泛经济效益。
2D Orbit Map
3D Orbit Map
Orbit Altitude Analysis Chart
Orbit Inclination Analysis Chart
Orbit Comprehensive Analysis Chart
View Comprehensive Chart